User: anonymous
Location: Belfast
(54.5830°N, 5.9330°W)
Time: 05:26:36
(UTC+01:00)
Language:

Coronas F rocket - Orbit

View from above orbital plane
View from above orbital plane
View from above satellite
View from above satellite

Ground track
Ground track

The orbit data is extracted from the following two-line orbital elements,

1 26874U 01032B   14266.83712868  .00014405  00000-0  21943-3 0  8024
2 26874 082.4712 239.8056 0016282 059.4950 300.7908 15.54182136736613
Epoch (UTC): 23 September 2014 20:05:27
Eccentricity: 0.0016282
inclination: 82.4712°
perigee height: 393 km
apogee height: 415 km
right ascension of ascending node: 239.8056°
argument of perigee: 59.4950°
revolutions per day: 15.54182136
mean anomaly at epoch: 300.7908°
orbit number at epoch: 73661

The dashed part of the orbit path shows where the satellite is in the earth's shadow,  

DLR